www.pogodaiklimat.ru

Погода и климат >> Архив погоды >> Россия >> Крым >> Клепинино


ПОГОДА в Клепинино

  • Прогноз погоды в Клепинино
  • Монитор погоды в Клепинино

АРХИВ ПОГОДЫ в Клепинино

Время (UTC), дата Ветер
(напр.,м/с)
 
Видим.   Явления Облачность Т
(С)
Тd
(С)
f
(%)
Тe
(С)
Тes
(С)
Комфортность P
(гПа)
Po
(гПа)
Тmin
(С)
Tmax
(С)
R
(мм)
R24
(мм)
S
(см)
00 18.08 штиль 0 20 км 8/0
[Ci sp]
+14.0 +10.5 79 +14 +14 1012.3 1007.9
03 18.08 штиль 0 20 км 10/0
[Ci sp]
+12.5 +11.2 92 +12 +12 1012.3 1007.9 +12.0
06 18.08 С 1 20 км 10/8 600 м
[Sc Ci sp]
+17.3 +14.2 82 +18 +20 1013.5 1009.1 +12.0
09 18.08 СВ 2 20 км 10/8 600 м
[Cb cap Ci sp]
+21.0 +13.7 63 +24 +24 комфорт 1015.0 1010.7
12 18.08 В 3 20 км 9/9 600 м
[Cb cap]
+23.0 +13.5 55 +26 +27 жарко 1015.0 1010.7
15 18.08 В 1 10 км слаб. ливневой дождь 10/10 600 м
[Cb cap]
+22.7 +13.6 56 +26 +26 жарко 1014.5 1010.2 0.0
18 18.08 З 2 20 км {ливн. осадки} 9/9 600 м
[Cb cap]
+20.3 +14.9 71 +23 +23 комфорт 1015.6 1011.3 +24.1 0.0
21 18.08 Ю 2 10 км слаб. ливневой дождь 10/10 600 м
[Cb cap]
+18.2 +15.3 83 +19 +19 1017.7 1013.3
00 19.08 штиль 0 20 км {ливн. осадки} 10/10 600 м
[Cb cap]
+17.8 +15.0 84 +18 +18 1016.3 1011.9
03 19.08 штиль 0 20 км 6/6 600 м
[Sc]
+17.0 +14.8 87 +17 +17 1017.1 1012.7 +17.0 0.0
06 19.08 В 2 20 км 4/4 600 м
[Sc]
+23.0 +15.6 63 +27 +31 душно 1019.0 1014.7 +16.7 0.0
09 19.08 В 3 20 км 4/3 600 м
[Cu hum Ci sp]
+27.0 +12.6 41 +29 +36 жарко 1019.0 1014.7
12 19.08 С 3 20 км 8/4 600 м
[Cu hum Ci sp]
+28.6 +12.9 38 +30 +33 жарко 1017.5 1013.3
15 19.08 В 2 20 км 8/4 600 м
[Cu Sc Ci sp]
+27.8 +12.2 38 +29 +30 жарко 1017.5 1013.3
18 19.08 В 1 20 км ясно +22.9 +11.9 50 +25 +25 комфорт 1019.0 1014.7 +29.9
21 19.08 С 1 20 км 6/6 600 м
[Sc]
+19.6 +12.6 64 +22 +22 комфорт 1019.1 1014.7
00 20.08 штиль 0 20 км 3/0
[Ci fib]
+17.3 +11.8 70 +17 +17 1019.1 1014.7
03 20.08 С 1 20 км 1/0
[Ci fib]
+16.7 +13.1 79 +18 +18 1018.6 1014.2 +16.0
06 20.08 СВ 2 20 км 8/5 600 м
[Sc Ci sp]
+25.5 +19.5 69 +31 +34 очень
душно
1019.1 1014.9 +16.0
09 20.08 СВ 4 20 км 10/10 600 м
[Sc]
+27.3 +19.9 64 +33 +33 очень
душно
1020.2 1016.0
12 20.08 В 5-10
{10}
20 км 10/0
[Ci sp]
+29.5 +19.2 54 +35 +40 очень
душно
1018.2 1014.0
15 20.08 В 4
{10}
20 км 10/0
[Ci sp]
+30.7 +18.7 49 +36 +37 очень
душно
1017.9 1013.7
18 20.08 В 1 20 км 8/5 600 м
[Sc Ac trans]
+27.4 +16.7 52 +31 +31 душно 1018.3 1014.1 +31.4
21 20.08 С 2 20 км 8/0 2000 м
[Ac trans Ci fib]
+25.0 +16.7 60 +29 +29 душно 1019.0 1014.7
00 21.08 С 2 20 км 9/3 600 м
[Sc Ac trans Ci fib]
+23.8 +15.6 60 +27 +27 жарко 1019.0 1014.7
03 21.08 СВ 2 20 км 3/0 2000 м
[Ac trans]
+20.8 +15.7 73 +25 +25 комфорт 1017.5 1013.2 +20.5
06 21.08 В 3 20 км 3/0
[Ci fib]
+26.4 +19.3 65 +32 +37 очень
душно
1016.8 1012.6 +20.5
09 21.08 В 4 20 км 6/0
[Ci sp]
+30.3 +19.9 54 +37 +41 очень
душно
1016.2 1012.0
12 21.08 СВ 7-14
{14}
20 км 6/3 600 м
[Cu hum Ci sp]
+32.7 +18.6 43 +37 +39 очень
душно
1014.1 1010.0
15 21.08 В 4
{15}
20 км 8/4 600 м
[Sc Ci sp]
+32.0 +19.0 46 +37 +38 очень
душно
1013.9 1009.8
18 21.08 ЮВ 1 20 км зарница 8/8 600 м
[Sc]
+26.5 +18.2 60 +31 +31 душно 1014.8 1010.6 +33.8
21 21.08 С 2 20 км 3/0
[Ci fib]
+24.7 +17.9 66 +29 +29 душно 1015.0 1010.7
00 22.08 СВ 2 20 км 9/9 600 м
[Sc]
+24.4 +18.3 69 +29 +29 душно 1015.0 1010.7
03 22.08 СВ 2 20 км 9/9 600 м
[Sc]
+22.7 +16.5 68 +27 +27 душно 1013.6 1009.3 +22.7
06 22.08 СВ 4 20 км 9/3 600 м
[Cb cap Ac trans Ci fib]
+24.8 +16.5 60 +28 +30 жарко 1013.5 1009.3 +21.7
09 22.08 СВ 4 20 км 8/0 1500 м
[Ac trans Ci fib]
+30.8 +17.8 46 +35 +38 очень
душно
1014.9 1010.7
12 22.08 СВ 5
{11}
20 км 9/0
[Ci sp]
+33.8 +15.3 33 +36 +40 очень
душно
1013.3 1009.5
15 22.08 В 4
{11}
20 км 8/0 1500 м
[Ac trans Ci fib]
+33.6 +13.8 30 +35 +35 душно 1013.5 1009.4
18 22.08 В 1 20 км 5/0 1500 м
[Ac trans Ci fib]
+26.4 +14.4 48 +29 +29 жарко 1014.8 1010.6 +34.9
21 22.08 СЗ 1 20 км ясно +21.6 +15.0 66 +25 +25 комфорт 1016.3 1012.0
00 23.08 ЮВ 1 20 км ясно +19.8 +14.4 71 +23 +23 комфорт 1016.3 1012.0
03 23.08 штиль 0 20 км 1/0
[Ci fib]
+18.2 +15.1 82 +18 +18 1016.1 1011.8 +18.2
06 23.08 СВ 4 20 км 3/0
[Ci sp]
+27.3 +17.9 56 +32 +35 очень
душно
1016.3 1012.1 +18.0
09 23.08 В 4 20 км 1/0
[Ci sp]
+32.3 +18.8 45 +37 +46 очень
душно
1017.5 1013.3
12 23.08 СВ 5-10
{10}
20 км 3/0
[Ci sp]
+35.5 +17.5 35 +39 +44 очень
душно
1015.6 1011.5
15 23.08 СВ 4
{10}
20 км ясно +34.6 +17.3 36 +38 +39 очень
душно
1016.1 1012.0
18 23.08 СВ 3 20 км 3/0
[Ci fib]
+30.7 +16.4 42 +34 +34 очень
душно
1016.5 1012.3 +36.1
21 23.08 СВ 3 20 км ясно +27.6 +16.2 50 +31 +31 душно 1017.5 1013.3
00 24.08 СВ 1 20 км ясно +24.9 +16.6 60 +28 +28 жарко 1017.6 1013.3
03 24.08 СВ 1 20 км ясно +20.6 +15.0 70 +25 +25 комфорт 1017.4 1013.1 +20.5
06 24.08 СВ 3 20 км ясно +27.3 +18.8 60 +32 +37 очень
душно
1018.9 1014.7 +20.5
09 24.08 СВ 4 20 км ясно +31.3 +19.6 50 +37 +47 очень
душно
1017.5 1013.3
12 24.08 СВ 6-12
{12}
20 км ясно +33.5 +17.6 39 +37 +42 очень
душно
1016.3 1012.2
15 24.08 В 6 20 км 2 балла +33.5 +16.8 37 +37 +37 очень
душно
1017.5 1013.3
18 24.08 СВ 1
{12}
20 км 4/4 600 м
[Sc]
+27.2 +14.0 44 +29 +29 жарко 1017.7 1013.5 +34.6

 

Местоположение метеостанции Клепинино (Крым, Россия): широта 45.53 долгота 34.18 высота над уровнем моря 37 м.

В архиве по умолчанию представлена погода в Клепинино за последнюю неделю. Архивные данные за месяц целиком и за предыдущие месяцы, начиная с января 2011 года, Вы можете получить, выбрав интересующий диапазон дат из раскрывающегося списка и нажав кнопку "Ввод!".


*Определитесь, кто Вы:
робот инопланетянин человек

Внимание! Время в таблицах - всемирное. Для получения местного времени необходимо прибавить поправку, которая равна 3 ч.

Смотрите также архив погоды в соседних городах и на ближайших метеорологических станциях:

Погода в Джанкое (Крым, Россия) (27 км)
Погода в Стрелковом (Херсонская область, Украина) (29 км)
Погода в Нижнегорском (Крым, Россия) (44 км)
Погода в Ишуни (Крым, Россия) (52 км)
Погода в Симферополе (Крым, Россия) (58 км)
Погода в Раздольном (Крым, Россия) (61 км)
Погода в Белогорске (Крым, Россия) (63 км)
Погода в Симферополе город (Крым, Россия) (65 км)
Погода в Евпатории (Крым, Россия) (74 км)
Погода в Почтовом (Крым, Россия) (80 км)

Пояснения к столбцам:

Ветер - указаны скорость ветра в м/с - средняя за 10 мин, порывы в срок и между сроками (в фигурных скобках) и направление, откуда дует ветер: С - северный, СВ - северо-восточный, В - восточный, ЮВ - юго-восточный, Ю - южный, ЮЗ - юго-западный, З - западный, СЗ - северо-западный.
Видимость - горизонтальная дальность видимости в метрах или километрах. При видимости от 1 до 10 км при отсутствии осадков обычно наблюдается дымка, при ухудшении видимости до 1 км и менее - туман. В сухую погоду видимость может ухудшаться дымом, пылью или мглою.
Явления - указаны атмосферные явления, наблюдавшиеся в срок или в последний час перед сроком; фигурными скобками обозначены явления, наблюдавшиеся между сроками (за 1-3 часа до срока); квадратными скобками обозначены град или гололедные отложения с указанием их диаметра в мм.
Облачность - указаны через наклонную черту общая и нижняя облачность в баллах и высота нижней границы облаков в метрах; квадратными скобками обозначены формы облаков: Ci - перистые, Cs - перисто-слоистые, Cc - перисто-кучевые, Ac - высококучевые, As - высокослоистые, Sc - слоисто-кучевые, Ns - слоисто-дождевые, Cu - кучевые, Cb - кучево-дождевые. Подробнее классификацию облаков см. в Атласе облаков (PDF).
T - Температура воздуха - температура, измеренная на высоте 2 м над землей.
Td - Температура точки росы - температура, при понижении до которой содержащийся в воздухе водяной пар достигнет насыщения.
f - Относительная влажность воздуха - влажноcть воздуха, измеренная на высоте 2 м над землей.
Te - Эффективная температура - температура, которую ощущает одетый по сезону человек в тени. Характеристика душности погоды. При расчете учитывается влияние влажности воздуха и скорости ветра на теплоощущения человека.
Tes - Эффективная температура на солнце - температура, которую ощущает человек, с поправкой на солнечный нагрев. Характеристика знойности погоды. Зависит от высоты солнца над горизонтом, облачности и скорости ветра. Ночью, в пасмурную погоду, а также при ветре 12 м/с и более поправка равна нулю.
P - Атмосферное давление - приведенное к уровню моря атмосферное давление.
Po - Атмосферное давление - измеренное на уровне метеостанции атмосферное давление.
Tmin - Минимальная температура - минимум температуры воздуха на высоте 2 м над землей.
Tmax - Максимальная температура - максимум температуры воздуха на высоте 2 м над землей.
R - Количество осадков - Количество выпавших осадков за период времени, мм. При наведении курсора мыши на число - период времени, за который выпало указанное количество осадков.
R24 - Количество осадков - Количество выпавших осадков за 24 часа, мм.
S - Снежный покров - Высота снежного покрова, см. При наведении курсора мыши на число - состояние снежного покрова и степень покрытия местности в баллах.